This demonstration page uses our WeatherBlox Daily Observations layout. Learn more.

Left ArrowRight Arrow

39.12711, -84.51439

Hourly Observations for September 30, 2018

Temp ( °F °C ) Dew Point ( °F °C ) Humidity (%) Winds ( mph kmh ) Pressure ( in mb ) Visibility ( mi km ) Precip ( " mm )
12:53 am 00:53 Clear 55 12.8 55 12.8 100 100 Calm 30.24 1024 8 13 0.00 0.00
1:21 am 01:21 Clear with Mist and Fog 56 13.3 56 13.3 100 100 Calm 30.24 1024 2 3 0.00 0.00
1:31 am 01:31 Mostly Cloudy with Mist and Fog 55 12.8 55 12.8 100 100 Calm 30.24 1024 1 1 0.00 0.00
1:44 am 01:44 Mostly Clear with Mist and Fog 55 12.8 55 12.8 100 100 Calm 30.24 1024 2 3 0.00 0.00
1:51 am 01:51 Mostly Clear 54 12 54 12 100 100 Calm 30.24 1024 8 13 0.00 0.00
1:53 am 01:53 Mostly Clear 54 12.2 54 12.2 100 100 NE 3 6 30.22 1024 7 11 0.00 0.00
2:53 am 02:53 Clear 55 12.8 55 12.8 100 100 NE 5 7 30.24 1024 8 13 0.00 0.00
3:53 am 03:53 Clear with Mist and Fog 54 12.2 54 12.2 100 100 ENE 3 6 30.25 1024 6 10 0.00 0.00
4:33 am 04:33 Mostly Clear with Mist and Fog 53 11.7 53 11.7 100 100 ENE 3 6 30.24 1024 1 2 0.00 0.00
4:49 am 04:49 Clear with Mist and Fog 54 12 54 12 100 100 Calm 30.27 1025 5 8 0.00 0.00
4:53 am 04:53 Clear with Mist and Fog 54 12.2 54 12.2 100 100 Calm 30.25 1025 4 6 0.00 0.00
5:09 am 05:09 Clear with Mist and Fog 53 11.7 53 11.7 100 100 Calm 30.27 1025 2 3 0.00 0.00
5:39 am 05:39 Clear with Mist and Fog 53 11.7 53 11.7 100 100 ENE 3 6 30.27 1025 3 5 0.00 0.00
5:51 am 05:51 Clear with Mist and Fog 54 12 54 12 100 100 Calm 30.27 1025 2 3 0.00 0.00
5:53 am 05:53 Clear with Mist and Fog 53 11.7 53 11.7 100 100 Calm 30.27 1025 2 3 0.00 0.00
6:01 am 06:01 Clear with Mist and Fog 54 12.2 54 12.2 100 100 Calm 30.27 1025 3 5 0.00 0.00
6:16 am 06:16 Clear with Mist and Fog 53 11.7 53 11.7 100 100 NE 5 7 30.27 1025 2 3 0.00 0.00
6:32 am 06:32 Clear with Mist and Fog 53 11.7 53 11.7 100 100 NE 5 7 30.27 1025 1 1 0.00 0.00
6:36 am 06:36 Clear with Mist and Fog 53 11.7 53 11.7 100 100 NNE 3 6 30.27 1025 2 3 0.00 0.00
6:44 am 06:44 Clear with Mist and Fog 53 11.7 53 11.7 100 100 Calm 30.27 1025 4 6 0.00 0.00
6:53 am 06:53 Clear with Patchy Fog 54 12.2 54 12.2 100 100 NNE 3 6 30.27 1025 7 11 0.00 0.00
7:53 am 07:53 Sunny with Patchy Fog 54 12.2 54 12.2 100 100 Calm 30.27 1025 7 11 0.00 0.00
8:53 am 08:53 Sunny 57 13.9 57 13.9 100 100 NE 3 6 30.28 1025 10 16 0.00 0.00
9:53 am 09:53 Sunny 62 16.7 59 15 90 90 Calm 30.27 1025 10 16 0.00 0.00
10:53 am 10:53 Sunny 66 18.9 62 16.7 87 87 Calm 30.27 1025 10 16 0.00 0.00
11:53 am 11:53 Sunny 71 21.7 61 16.1 71 71 Calm 30.26 1025 10 16 0.00 0.00
12:53 pm 12:53 Sunny 75 23.9 62 16.7 64 64 Calm 30.25 1025 10 16 0.00 0.00
1:53 pm 13:53 Sunny 77 25 62 16.7 60 60 S 6 9 30.23 1024 10 16 0.00 0.00
2:53 pm 14:53 Sunny 78 25.6 60 15.6 54 54 S 6 9 30.20 1023 10 16 0.00 0.00
3:53 pm 15:53 Sunny 79 26.1 60 15.6 52 52 SSW 9 15 30.19 1022 10 16 0.00 0.00
4:53 pm 16:53 Sunny 79 26.1 62 16.7 56 56 S 8 13 30.17 1022 10 16 0.00 0.00
5:53 pm 17:53 Sunny 78 25.6 63 17.2 60 60 S 5 7 30.18 1022 10 16 0.00 0.00
6:53 pm 18:53 Sunny 75 23.9 66 18.9 74 74 Calm 30.18 1022 10 16 0.00 0.00
7:53 pm 19:53 Clear 67 19.4 65 18.3 93 93 Calm 30.18 1022 10 16 0.00 0.00
8:53 pm 20:53 Clear 64 17.8 64 17.8 100 100 Calm 30.19 1023 10 16 0.00 0.00
9:53 pm 21:53 Clear 62 16.7 62 16.7 100 100 Calm 30.21 1023 10 16 0.00 0.00
10:53 pm 22:53 Clear 61 16.1 61 16.1 100 100 Calm 30.22 1023 9 14 0.00 0.00
11:39 pm 23:39 Clear with Mist and Fog 61 16.1 61 16.1 100 100 Calm 30.24 1024 1 2 0.00 0.00
11:53 pm 23:53 Clear with Fog 60 15.6 60 15.6 100 100 Calm 30.22 1023 1 1 0.00 0.00

Powered by AerisWeather